Temp
82 82 81 81 81 81 80 80 80 79 79 79 79 78 78 77 77 75 76 76 75 74 75 73 72 72 72 75 73 77 76 71 67 66 66 64 64 69 71 69 70 68 63
82 82 81 81 81 79 79 80 79 78 80 79 79 79 79 79 77 77 76 77 75 74 72 73 73 73 72 72 76 70 74 73 71 63 60 59 60 62 65 65 64 64 63
83 82 80 79 79 78 78 78 79 79 79 80 79 79 79 79 78 78 78 77 76 71 66 65 69 69 70 70 74 73 72 71 72 69 58 58 60 60 60 61 61 60 60
83 82 79 78 78 78 78 78 78 79 79 79 79 80 80 80 80 80 78 76 74 69 63 64 64 63 64 70 72 70 71 69 68 65 58 57 58 58 59 57 56 58 57
82 81 78 79 79 79 78 78 79 78 80 80 80 80 80 80 81 77 76 74 74 67 64 63 63 62 60 63 70 70 70 70 68 61 58 57 55 56 56 57 56 56 56
81 80 80 80 79 78 77 77 77 78 79 80 79 79 77 81 49 53 65 74 73 69 63 63 63 59 59 56 57 60 68 70 63 61 60 59 57 56 57 55 55 54 51
82 81 80 80 79 78 78 78 77 75 76 76 77 77 76 73 49 49 53 74 73 70 63 62 60 63 63 69 54 54 56 55 61 62 62 59 57 59 59 56 57 57 56
82 81 81 81 79 79 78 76 76 74 74 74 74 75 74 69 47 47 50 71 71 69 64 62 60 67 67 63 65 66 68 69 67 71 67 65 63 63 61 58 57 55 56
82 81 82 81 79 78 77 75 74 74 73 74 75 74 73 70 47 47 54 71 70 67 63 61 62 63 51 51 65 65 65 67 53 52 53 51 49 50 58 61 54 58 56
83 83 83 82 80 78 76 75 75 74 72 75 74 74 60 71 47 46 56 71 64 63 61 58 50 58 46 48 65 65 64 64 67 65 60 54 56 54 52 61 64 59 57
85 84 83 81 79 78 75 75 74 72 72 72 71 71 73 69 61 46 49 68 65 64 65 63 61 45 44 47 54 70 65 66 60 67 64 61 61 62 62 62 67 63 60
85 84 81 80 80 78 75 75 73 71 70 69 69 71 71 66 50 48 47 52 56 67 64 67 60 42 43 46 54 45 47 56 66 63 61 59 60 59 60 63 64 65 71
83 81 80 80 80 77 74 71 70 70 70 70 68 68 68 67 65 45 45 47 50 66 67 52 42 42 42 45 44 46 50 64 64 61 59 59 61 61 61 62 69 71 71
81 80 80 79 76 76 77 72 72 71 70 71 69 68 68 66 65 65 63 59 50 58 51 54 50 49 49 49 51 57 65 65 66 60 58 60 61 61 63 64 66 70 71
80 80 79 80 78 77 75 70 72 69 66 70 73 74 69 68 66 57 60 63 62 57 58 60 58 56 55 56 58 60 61 65 63 62 61 62 63 65 65 69 70 72 70
78 80 81 81 78 77 75 70 44 46 45 49 53 61 69 51 45 46 44 44 44 45 60 58 57 57 57 57 58 58 60 60 63 63 65 69 69 69 70 69 72 73 72
79 80 82 78 79 75 75 74 65 52 42 42 45 45 47 48 42 42 41 42 42 49 58 59 58 59 58 59 60 62 63 65 70 71 70 71 71 70 67 71 74 75 75
81 60 82 83 81 77 76 77 73 69 66 66 46 50 43 42 41 41 42 48 57 56 60 65 64 63 62 62 63 67 69 71 72 71 71 69 69 71 71 73 75 74 75
83 83 84 85 83 78 80 80 77 74 74 73 64 52 44 38 39 40 42 71 67 63 65 65 70 69 66 65 68 71 71 73 72 72 71 71 72 76 76 76 77 56 61
84 66 72 85 82 82 82 81 81 80 77 75 73 71 60 55 58 55 63 67 72 69 67 69 69 72 72 72 73 72 73 71 72 70 71 71 72 77 78 77 78 78 76
86 83 65 85 83 84 83 82 82 81 80 79 78 71 49 74 74 70 67 67 76 78 77 73 72 74 75 76 74 71 72 73 75 75 76 77 78 77 78 79 80 79 79
87 84 84 86 85 85 84 84 83 83 82 81 80 65 40 71 80 77 76 75 78 81 82 80 82 80 80 78 78 77 77 76 77 77 77 79 80 79 79 79 79 79 79
87 85 85 86 86 68 81 84 83 83 83 83 82 72 68 77 81 81 79 79 79 80 82 81 82 82 83 82 82 82 81 80 79 79 78 79 80 80 80 78 79 78 78
86 85 85 85 85 84 84 83 84 68 82 84 82 79 77 79 82 82 82 82 82 82 82 82 82 83 83 82 82 83 83 83 83 83 81 80 80 75 79 80 80 79 79
83 83 84 83 81 83 81 83 82 83 82 83 82 82 82 82 82 83 83 83 83 82 82 83 83 82 81 81 82 82 66 44 70 53 82 81 80 79 80 81 80 79 79
69 72 74 77 78 77 77 78 78 79 79 79 78 77 78 78 78 79 80 80 83 83 82 84 81 74 71 58 55 39 35 35 54 38 70 77 77 79 80 79 79 79 79
MSLP
998.17 998.73 999.40 999.87 1000.47 1001.18 1001.69 1002.28 1002.90 1003.41 1003.83 1004.19 1004.59 1004.95 1005.28 1005.58 1005.92 1006.15 1006.18 1006.38 1006.60 1006.93 1007.13 1007.44 1007.67 1007.85 1007.75 1007.37 1007.94 1007.79 1007.82 1008.41 1008.80 1010.20 1011.03 1011.59 1011.58 1011.31 1011.37 1011.98 1012.35 1012.87 1013.78
998.30 999.00 999.70 1000.16 1000.72 1001.28 1001.83 1002.47 1003.05 1003.50 1003.88 1004.20 1004.53 1004.86 1005.12 1005.33 1005.71 1005.82 1005.96 1006.04 1006.41 1006.71 1007.11 1007.35 1007.54 1007.57 1007.73 1007.81 1007.60 1008.14 1007.99 1008.49 1008.74 1010.23 1011.47 1011.98 1012.00 1011.91 1012.06 1012.54 1013.04 1013.47 1014.11
998.44 999.25 999.99 1000.39 1000.95 1001.49 1002.07 1002.63 1003.07 1003.59 1003.95 1004.24 1004.56 1004.80 1004.91 1005.17 1005.48 1005.63 1005.70 1005.98 1006.30 1007.17 1007.79 1007.96 1008.09 1008.13 1007.98 1008.03 1007.82 1008.05 1008.19 1008.72 1009.13 1010.19 1011.63 1012.30 1012.48 1012.46 1012.70 1013.29 1013.81 1014.40 1015.11
998.72 999.47 1000.09 1000.69 1001.25 1001.71 1002.19 1002.71 1003.22 1003.57 1003.91 1004.16 1004.52 1004.61 1004.77 1005.09 1005.29 1005.40 1005.69 1006.09 1006.60 1007.47 1008.01 1008.33 1008.45 1008.62 1008.63 1008.27 1008.06 1008.18 1008.39 1008.96 1009.72 1010.70 1011.89 1012.55 1012.88 1013.02 1013.12 1013.61 1014.82 1015.51 1016.24
998.88 999.63 1000.35 1001.03 1001.48 1001.86 1002.29 1002.74 1003.21 1003.57 1003.77 1004.07 1004.37 1004.52 1004.76 1005.00 1005.23 1005.71 1005.93 1006.27 1006.56 1007.57 1008.02 1008.36 1008.63 1008.81 1008.90 1008.72 1008.27 1008.39 1008.77 1009.18 1010.04 1011.16 1011.99 1012.67 1013.21 1013.41 1013.65 1014.32 1015.10 1016.19 1017.11
999.08 999.71 1000.44 1001.04 1001.50 1001.95 1002.44 1002.88 1003.33 1003.54 1003.76 1004.01 1004.24 1004.48 1004.98 1005.05 1006.50 1006.52 1006.47 1006.22 1006.56 1007.27 1007.92 1008.32 1008.57 1008.87 1008.98 1008.94 1008.99 1008.86 1008.76 1009.22 1010.39 1011.13 1011.93 1012.42 1013.14 1013.68 1014.23 1014.72 1015.45 1016.35 1017.72
999.08 999.82 1000.40 1000.92 1001.46 1001.99 1002.38 1002.90 1003.31 1003.73 1004.13 1004.30 1004.40 1004.81 1005.21 1006.05 1006.86 1006.86 1006.80 1006.34 1006.47 1007.02 1007.85 1008.23 1008.55 1008.72 1008.84 1008.90 1009.31 1009.42 1009.65 1010.01 1010.57 1010.96 1011.63 1012.56 1013.35 1013.93 1014.42 1015.08 1015.95 1016.55 1017.31
998.98 999.63 1000.25 1000.68 1001.35 1001.93 1002.39 1002.85 1003.36 1003.97 1004.25 1004.54 1004.77 1005.05 1005.55 1006.52 1007.08 1007.11 1007.10 1006.83 1006.87 1007.28 1007.95 1008.33 1008.60 1008.51 1008.70 1009.35 1009.38 1009.62 1010.06 1010.55 1011.13 1010.95 1011.79 1012.58 1013.51 1014.18 1014.73 1015.28 1016.15 1016.93 1018.06
998.77 999.44 1000.03 1000.53 1001.30 1001.91 1002.35 1002.95 1003.63 1003.99 1004.38 1004.56 1004.82 1005.19 1005.62 1006.50 1007.25 1007.32 1007.39 1006.87 1006.98 1007.54 1008.13 1008.45 1008.76 1009.02 1009.33 1009.44 1009.50 1009.78 1010.21 1010.89 1011.70 1011.68 1012.33 1013.03 1013.99 1014.59 1014.97 1015.60 1016.50 1016.90 1018.03
998.58 999.28 999.91 1000.48 1001.27 1001.88 1002.47 1003.10 1003.52 1004.01 1004.46 1004.66 1004.94 1005.46 1006.25 1006.46 1007.41 1007.50 1007.40 1007.07 1007.57 1007.91 1008.48 1008.84 1009.10 1009.35 1009.62 1009.74 1009.82 1010.05 1010.37 1011.10 1011.77 1012.64 1013.61 1014.20 1014.50 1015.30 1015.73 1015.77 1015.97 1016.54 1017.54
998.53 999.22 999.96 1000.67 1001.33 1002.03 1002.86 1003.25 1003.59 1004.21 1004.68 1004.94 1005.29 1005.62 1005.87 1006.37 1007.45 1007.64 1007.68 1007.46 1007.72 1007.98 1008.29 1008.73 1009.25 1009.55 1009.91 1010.12 1010.04 1009.98 1010.71 1011.34 1012.01 1012.63 1013.48 1014.24 1014.86 1015.45 1015.95 1016.20 1016.11 1016.68 1017.21
998.48 999.18 999.98 1000.80 1001.33 1002.34 1002.86 1003.26 1003.95 1004.50 1004.85 1005.21 1005.60 1005.80 1006.38 1007.25 1007.84 1007.95 1008.03 1007.90 1008.07 1008.00 1008.41 1008.67 1009.48 1009.87 1010.23 1010.45 1010.54 1010.81 1011.44 1011.85 1012.26 1012.93 1013.70 1014.38 1014.84 1015.53 1016.15 1016.35 1016.52 1016.82 1016.58
998.57 999.29 1000.07 1000.86 1001.38 1002.32 1002.92 1003.58 1004.14 1004.65 1004.81 1005.20 1005.52 1005.73 1006.64 1007.30 1007.86 1008.32 1008.46 1008.48 1008.48 1008.39 1008.74 1009.50 1009.92 1010.24 1010.61 1010.90 1011.18 1011.58 1011.93 1012.30 1012.58 1013.16 1013.82 1014.46 1015.04 1015.70 1016.32 1016.71 1016.39 1016.58 1016.66
998.69 999.48 1000.19 1000.79 1001.57 1002.40 1002.97 1003.82 1004.17 1004.50 1004.81 1004.99 1005.23 1005.66 1006.44 1007.29 1007.80 1008.19 1008.62 1008.96 1009.07 1009.33 1009.78 1010.19 1010.43 1010.69 1010.99 1011.41 1011.88 1012.03 1012.13 1012.31 1012.64 1013.42 1014.05 1014.74 1015.39 1015.95 1016.35 1016.63 1016.52 1016.37 1016.03
998.80 999.47 1000.13 1000.75 1001.43 1002.25 1003.10 1004.38 1004.54 1004.97 1005.21 1005.03 1005.01 1005.32 1006.30 1006.94 1007.66 1007.86 1008.11 1008.79 1009.17 1009.61 1009.99 1010.28 1010.54 1011.00 1011.38 1011.79 1011.85 1012.14 1012.40 1012.63 1013.07 1013.56 1014.01 1014.53 1015.06 1015.46 1015.79 1015.86 1015.71 1015.74 1015.80
998.69 999.29 999.71 1000.47 1001.50 1002.38 1003.25 1004.61 1005.49 1005.64 1005.81 1005.69 1005.70 1005.95 1006.36 1006.94 1007.96 1008.59 1008.86 1009.24 1009.63 1009.97 1010.05 1010.38 1010.72 1011.05 1011.37 1011.65 1011.80 1012.17 1012.52 1012.81 1012.98 1013.53 1013.86 1013.83 1014.15 1014.66 1014.94 1015.33 1015.24 1015.09 1015.03
998.38 998.94 999.62 1000.04 1001.05 1002.22 1002.85 1003.58 1005.23 1006.72 1006.69 1006.75 1006.83 1006.80 1006.88 1007.77 1008.47 1008.95 1009.24 1009.64 1009.96 1010.08 1010.23 1010.52 1010.84 1011.12 1011.40 1011.64 1011.87 1012.01 1012.23 1012.42 1012.60 1012.76 1012.87 1013.15 1013.67 1014.26 1014.68 1014.72 1014.43 1014.39 1014.30
998.28 999.00 999.51 999.66 1000.60 1001.80 1002.39 1002.75 1003.72 1005.02 1005.90 1006.62 1007.47 1007.40 1007.90 1008.33 1008.92 1009.23 1009.48 1009.88 1010.13 1010.09 1010.17 1010.04 1010.44 1010.84 1011.26 1011.48 1011.64 1011.52 1011.63 1011.83 1011.99 1012.31 1012.58 1013.09 1013.48 1013.67 1013.93 1013.74 1013.77 1013.95 1013.96
997.99 998.78 999.00 999.39 1000.09 1000.86 1001.59 1001.85 1002.36 1003.39 1004.00 1005.13 1007.07 1008.09 1008.72 1009.07 1009.49 1009.69 1009.53 1008.66 1009.20 1009.51 1009.69 1009.90 1009.69 1010.01 1010.61 1011.00 1010.98 1010.84 1011.17 1011.35 1011.71 1012.09 1012.46 1012.80 1012.98 1012.64 1012.82 1013.08 1013.10 1013.40 1013.45
997.75 998.42 998.71 999.15 999.92 1000.45 1000.94 1001.13 1001.41 1002.05 1003.10 1004.23 1005.43 1006.62 1008.21 1008.91 1009.33 1009.61 1009.23 1008.57 1008.30 1008.54 1008.94 1009.20 1009.60 1009.56 1009.93 1010.34 1010.58 1010.73 1010.89 1011.31 1011.49 1011.88 1012.09 1012.40 1012.57 1012.25 1012.04 1012.31 1012.36 1012.35 1012.81
997.35 998.48 998.79 998.99 999.64 999.99 1000.47 1000.85 1001.23 1001.73 1002.20 1003.18 1004.25 1006.01 1006.90 1007.20 1007.31 1008.00 1008.32 1008.19 1007.33 1007.16 1007.48 1008.27 1008.85 1009.12 1009.41 1009.63 1009.94 1010.53 1010.84 1011.04 1011.25 1011.46 1011.41 1011.44 1011.58 1011.58 1011.70 1011.54 1011.58 1011.77 1011.83
997.01 998.08 998.74 998.55 999.14 999.62 1000.13 1000.65 1001.06 1001.40 1001.83 1002.47 1003.74 1006.31 1007.02 1007.09 1005.97 1006.26 1006.66 1006.97 1007.02 1006.63 1006.91 1007.30 1007.31 1007.92 1008.36 1008.85 1009.23 1009.55 1009.75 1010.11 1010.40 1010.66 1010.87 1010.61 1010.63 1010.82 1010.90 1010.92 1010.99 1011.04 1011.07
996.96 997.88 998.41 998.41 998.95 999.68 1000.24 1000.49 1000.93 1001.27 1001.65 1002.24 1003.33 1005.45 1006.59 1005.73 1005.03 1005.20 1005.51 1006.03 1006.55 1006.66 1006.78 1007.15 1007.24 1007.41 1007.72 1008.11 1008.29 1008.54 1008.71 1009.01 1009.47 1009.90 1010.07 1009.87 1009.86 1009.93 1010.08 1010.16 1010.22 1010.19 1010.13
997.18 997.76 998.19 998.44 998.99 999.69 1000.08 1000.45 1000.90 1001.53 1001.67 1002.19 1003.00 1004.28 1005.06 1004.97 1004.55 1004.55 1004.89 1005.44 1005.92 1006.30 1006.53 1006.83 1007.00 1007.03 1007.31 1007.69 1007.91 1008.11 1008.26 1008.43 1008.55 1008.67 1009.05 1008.99 1008.97 1009.06 1009.22 1009.02 1009.00 1009.04 1009.15
998.02 998.24 998.49 999.09 999.89 999.88 1000.72 1000.92 1001.34 1001.96 1002.44 1002.68 1003.30 1003.76 1004.27 1004.56 1004.62 1004.72 1005.07 1005.31 1005.63 1005.95 1006.30 1006.60 1006.82 1007.00 1007.27 1007.51 1007.50 1007.57 1007.91 1008.55 1008.76 1008.77 1008.46 1008.44 1008.57 1008.61 1008.49 1008.24 1008.28 1008.38 1008.41
1000.44 1000.42 1000.60 1000.83 1001.09 1001.69 1001.91 1002.21 1002.64 1002.95 1003.45 1004.20 1004.76 1004.99 1005.08 1005.22 1005.41 1005.68 1005.90 1006.09 1006.04 1006.11 1006.42 1006.68 1007.01 1007.66 1007.99 1009.51 1009.95 1010.26 1009.91 1009.71 1009.26 1009.49 1009.07 1008.65 1008.46 1008.11 1007.87 1007.71 1007.68 1007.62 1007.44
Wind_Speed
14 14 14 14 14 12 11 10 9 8 8 8 8 8 7 7 7 7 4 5 7 6 5 6 6 6 6 6 5 5 5 4 5 5 4 3 3 3 8 8 8 9 11
15 15 14 14 13 12 10 9 8 8 8 8 8 8 8 8 8 7 7 6 6 6 6 5 5 4 5 4 5 5 4 4 4 8 3 2 4 3 7 7 7 8 11
15 15 14 13 12 11 10 9 9 9 9 9 8 9 9 8 8 6 5 6 5 6 4 4 3 1 2 5 6 5 5 5 6 8 4 2 4 2 8 8 9 10 8
14 14 13 12 11 10 10 10 10 10 9 9 9 8 8 7 7 6 6 6 7 8 5 3 3 1 2 4 5 6 6 8 8 8 8 4 4 4 8 11 10 9 11
14 13 12 11 11 10 10 11 10 9 9 10 9 8 7 6 3 3 5 7 7 7 5 2 3 3 3 6 5 7 9 10 9 9 7 6 5 5 7 8 12 10 10
13 13 13 11 10 10 10 10 10 10 9 9 8 8 8 5 6 5 3 5 7 8 6 4 3 5 5 5 4 8 7 12 11 8 7 10 9 8 7 10 13 12 7
13 13 12 11 10 9 10 10 10 9 9 8 7 6 6 7 4 1 5 4 6 7 6 3 3 4 8 7 6 9 11 11 11 9 12 11 11 11 11 12 13 11 9
13 13 12 10 10 9 9 10 10 8 8 7 7 6 6 6 4 3 4 3 4 5 6 4 4 6 8 9 10 10 10 11 13 9 10 13 13 11 13 11 11 11 8
14 13 11 10 10 9 9 9 9 8 7 7 6 7 6 7 4 3 4 4 6 7 5 3 4 5 10 9 10 12 11 10 9 14 11 13 14 13 12 12 10 13 10
14 13 11 11 10 10 9 9 9 8 7 5 6 6 4 8 5 2 6 5 5 5 5 4 3 5 9 9 10 12 12 12 12 13 12 14 14 13 10 7 11 11 8
14 13 11 10 10 10 9 8 8 7 7 6 6 5 5 6 5 3 2 4 5 4 4 4 3 6 9 9 8 11 12 12 12 13 11 9 10 11 8 4 7 8 8
14 13 11 10 9 9 10 8 8 8 7 6 8 7 6 6 5 4 1 1 5 5 4 4 5 7 10 10 5 15 14 11 8 9 9 8 9 8 7 6 6 9 2
13 12 11 11 9 9 9 9 8 8 7 7 7 7 6 4 4 6 5 5 4 5 5 8 9 9 10 8 14 15 12 8 9 9 9 8 7 7 7 5 6 5 4
14 13 11 10 10 10 7 7 7 6 5 7 7 8 7 5 5 4 5 5 8 8 9 6 7 8 8 8 9 10 8 7 9 8 7 7 7 8 8 6 7 8 7
14 12 11 10 9 8 6 4 7 6 3 7 6 6 8 6 4 5 3 6 5 8 8 6 6 5 8 6 4 6 5 9 8 7 8 8 9 9 8 10 7 6 6
14 11 10 10 9 7 7 7 14 10 9 7 7 4 7 12 12 8 9 11 12 11 5 5 6 6 6 5 6 7 6 7 8 9 10 11 12 11 10 8 8 9 9
13 12 10 9 9 7 7 8 7 5 10 10 8 8 8 13 11 10 11 13 9 7 5 6 7 5 6 5 6 6 7 7 11 11 10 9 10 9 8 9 9 8 8
14 11 10 9 9 9 8 9 8 9 8 7 9 7 8 11 10 11 13 10 4 4 5 7 8 8 6 6 8 9 10 10 9 9 10 8 7 9 10 10 8 8 9
13 12 11 9 10 9 9 8 9 10 8 10 8 5 8 11 9 4 7 7 8 7 7 6 6 7 9 5 5 7 9 10 10 9 8 7 9 11 10 9 9 9 8
13 14 9 9 9 9 8 8 7 7 9 9 10 11 8 7 7 6 6 5 7 7 7 8 7 7 8 8 9 7 7 8 8 5 6 6 6 9 9 11 10 9 11
11 12 8 9 10 9 8 8 7 7 7 8 9 11 12 11 10 11 9 5 6 7 10 10 9 9 8 8 8 8 8 9 10 10 11 11 11 11 11 10 10 11 11
11 12 11 9 9 9 9 8 8 7 8 8 10 9 10 9 9 9 10 10 8 5 6 5 7 10 10 10 11 11 11 11 10 10 11 10 10 11 10 11 11 11 11
11 12 12 9 9 8 8 8 8 7 7 8 10 10 10 9 7 8 8 8 8 6 6 6 6 7 7 7 7 8 9 9 10 10 12 12 11 11 11 12 12 13 13
11 12 12 9 9 9 9 8 7 4 6 7 8 10 9 7 5 6 7 7 7 7 6 6 6 7 7 7 7 8 9 9 9 10 14 12 12 12 13 13 14 16 15
7 8 9 7 6 6 6 7 6 8 5 5 6 6 6 5 4 3 4 4 4 5 5 4 4 6 7 9 8 8 3 1 8 8 9 12 14 16 14 13 14 15 17
10 10 9 8 8 8 7 8 7 6 8 7 8 9 8 7 8 7 5 5 1 2 1 2 2 12 15 15 16 13 11 9 6 7 9 12 14 13 13 16 20 16 18
Wind_Direction
142 137 139 136 133 137 136 139 142 144 153 159 162 156 161 169 176 192 207 162 194 186 203 212 206 213 225 195 188 229 237 171 165 99 81 50 47 262 144 109 137 134 137
138 140 137 135 135 136 137 141 143 149 158 156 155 161 169 172 176 189 202 171 197 191 181 214 214 206 205 217 189 199 223 170 169 143 91 73 58 24 101 111 111 119 132
141 138 139 135 137 137 141 142 151 151 153 155 160 170 170 174 183 196 203 183 145 116 103 45 112 133 239 198 187 184 204 159 134 142 110 67 75 66 100 92 97 100 109
141 139 136 138 141 143 142 147 150 156 158 157 170 172 176 186 190 192 185 163 159 123 125 162 171 181 280 227 202 194 155 116 125 118 115 101 91 66 113 115 100 106 113
143 139 138 142 144 141 144 151 152 154 161 162 170 165 167 170 157 177 167 171 163 146 142 159 193 205 267 233 236 143 164 134 139 129 127 125 122 105 122 120 108 111 98
146 141 145 149 146 145 149 151 156 161 165 161 168 159 153 113 54 5 282 169 157 160 156 194 182 194 215 226 289 146 190 142 151 144 145 142 128 121 126 128 125 126 117
149 145 148 148 149 153 155 160 165 166 169 178 174 153 142 115 85 82 301 183 163 165 150 172 149 161 195 166 96 112 76 72 143 155 144 145 137 142 135 135 135 133 128
152 150 148 154 148 152 157 169 168 170 175 174 171 155 144 95 109 141 252 219 148 126 135 143 155 178 149 145 153 149 146 134 143 148 151 149 143 146 136 129 121 109 101
158 154 154 147 150 156 163 165 160 167 163 167 155 145 137 112 123 157 264 150 108 109 110 123 157 203 144 176 152 142 140 124 60 90 106 117 120 115 132 126 128 140 135
159 157 155 150 152 161 154 161 161 154 152 156 145 123 94 125 132 202 274 109 118 105 103 97 60 178 165 181 143 151 139 142 131 120 111 107 122 125 128 144 146 138 133
156 152 151 151 159 140 152 156 148 143 149 154 130 116 120 104 123 188 195 140 132 133 124 135 111 144 158 185 189 164 144 143 133 136 134 126 132 140 127 139 146 144 146
158 154 152 155 160 154 156 142 140 148 147 137 134 145 111 104 48 110 160 118 143 140 133 103 94 134 146 150 148 108 125 136 136 130 132 136 141 131 134 147 162 178 70
156 154 151 162 157 155 155 143 146 160 159 149 183 138 129 128 108 77 84 127 116 128 110 77 94 104 109 94 122 125 146 138 144 143 140 143 146 137 125 150 163 161 98
157 153 152 163 150 159 154 152 154 155 165 171 177 145 143 139 158 149 142 112 109 100 109 96 96 92 93 112 132 157 142 153 145 139 137 133 136 147 154 173 190 191 208
159 156 159 142 175 145 126 89 147 167 205 172 165 155 148 153 176 93 137 128 143 124 125 125 110 110 119 132 131 120 122 136 142 141 139 149 159 164 170 193 195 183 200
163 164 167 156 144 149 151 126 44 43 53 65 48 54 89 94 112 108 108 120 127 144 129 115 118 123 125 122 123 132 144 158 143 137 161 170 163 170 174 186 202 199 205
175 167 152 165 154 152 156 154 146 61 60 46 36 61 61 125 120 124 119 124 146 134 127 136 134 134 131 135 140 148 152 152 158 170 176 166 164 174 179 197 207 207 214
177 159 166 165 150 158 170 164 160 159 162 155 55 64 95 122 125 133 134 129 132 141 144 163 158 153 155 158 170 170 170 166 169 177 170 172 180 188 197 208 205 211 215
172 171 185 163 157 161 167 179 165 158 161 141 135 102 87 80 82 109 202 160 155 161 166 184 168 162 157 173 174 171 163 174 173 175 177 183 202 203 196 213 212 217 224
177 170 193 166 143 170 163 178 159 147 150 145 162 159 146 151 153 171 207 229 172 166 176 177 178 180 172 173 185 168 186 186 188 195 195 195 200 227 213 211 224 224 212
177 160 201 174 162 169 164 171 163 163 154 157 154 148 168 183 171 173 188 206 208 182 169 172 177 180 187 187 191 171 192 187 202 200 204 201 206 213 222 233 233 230 241
174 164 189 185 168 170 162 166 167 174 158 159 126 134 169 233 175 172 181 185 208 198 171 185 173 174 184 189 196 201 203 204 209 208 220 226 218 221 230 229 237 239 245
167 170 190 185 172 153 166 168 163 174 165 159 137 142 182 222 162 168 170 178 185 206 190 189 199 185 186 194 201 210 209 206 207 208 220 224 227 229 230 235 241 244 246
164 171 180 176 169 171 171 172 162 131 164 164 149 152 179 195 190 156 163 164 174 186 191 195 210 218 192 203 206 212 216 219 215 215 225 231 232 226 239 245 243 246 252
154 173 161 135 149 161 134 155 159 150 152 138 136 150 155 160 155 139 151 165 170 181 183 201 213 211 226 245 262 256 298 125 260 313 288 243 247 258 261 259 252 254 261
71 71 77 88 85 75 72 83 85 88 96 85 66 50 42 58 52 46 43 39 7 158 158 188 65 36 40 51 26 13 18 16 338 334 280 261 266 266 258 256 259 262 264